TimeHST,TemperatureF,Dew PointF,Humidity,Sea Level PressureIn,VisibilityMPH,Wind Direction,Wind SpeedMPH,Gust SpeedMPH,PrecipitationIn,Events,Conditions,WindDirDegrees,DateUTC
12:53 AM,75.9,66.9,74,30.09,10.0,NE,15.0,-,N/A,,Clear,50,2013-08-13 10:53:00
1:53 AM,75.9,68.0,76,30.07,10.0,NE,15.0,-,N/A,,Mostly Cloudy,50,2013-08-13 11:53:00
2:53 AM,75.0,70.0,84,30.06,10.0,NE,13.8,-,0.01,,Mostly Cloudy,50,2013-08-13 12:53:00
3:10 AM,75.2,69.8,83,30.06,10.0,NE,13.8,-,N/A,,Scattered Clouds,50,2013-08-13 13:10:00
3:53 AM,75.0,68.0,79,30.05,10.0,NE,15.0,-,N/A,,Mostly Cloudy,50,2013-08-13 13:53:00
4:53 AM,75.0,68.0,79,30.04,10.0,NE,17.3,-,N/A,,Partly Cloudy,50,2013-08-13 14:53:00
5:53 AM,75.0,68.0,79,30.04,10.0,NE,15.0,-,N/A,,Partly Cloudy,50,2013-08-13 15:53:00
6:53 AM,75.9,68.0,76,30.05,10.0,NE,16.1,-,N/A,,Partly Cloudy,40,2013-08-13 16:53:00
7:53 AM,77.0,69.1,76,30.06,10.0,NE,15.0,-,N/A,,Scattered Clouds,40,2013-08-13 17:53:00
8:53 AM,79.0,69.1,72,30.07,10.0,NE,18.4,-,0.00,,Partly Cloudy,40,2013-08-13 18:53:00
9:53 AM,81.0,68.0,65,30.08,10.0,NE,16.1,-,N/A,,Partly Cloudy,50,2013-08-13 19:53:00
10:48 AM,82.4,69.8,66,30.09,10.0,NE,17.3,-,N/A,,Overcast,50,2013-08-13 20:48:00
10:53 AM,82.0,69.1,65,30.08,10.0,ENE,16.1,-,N/A,,Mostly Cloudy,60,2013-08-13 20:53:00
11:03 AM,82.4,69.8,66,30.08,10.0,NE,17.3,-,N/A,,Scattered Clouds,50,2013-08-13 21:03:00
11:53 AM,82.9,68.0,60,30.07,10.0,NE,17.3,-,N/A,,Partly Cloudy,40,2013-08-13 21:53:00
12:53 PM,82.9,69.1,63,30.05,10.0,NE,16.1,-,N/A,,Partly Cloudy,50,2013-08-13 22:53:00
1:53 PM,82.9,68.0,60,30.04,10.0,NE,17.3,-,N/A,,Partly Cloudy,50,2013-08-13 23:53:00
2:53 PM,81.0,68.0,65,30.03,10.0,NE,16.1,-,N/A,,Partly Cloudy,50,2013-08-14 00:53:00
3:53 PM,81.0,69.1,67,30.01,10.0,NE,18.4,-,N/A,,Scattered Clouds,40,2013-08-14 01:53:00
4:53 PM,81.0,69.1,67,30.01,10.0,NE,18.4,-,N/A,,Partly Cloudy,40,2013-08-14 02:53:00
5:53 PM,79.0,69.1,72,30.01,10.0,NE,18.4,-,N/A,,Scattered Clouds,40,2013-08-14 03:53:00
6:53 PM,77.0,69.1,76,30.02,10.0,NE,19.6,-,N/A,,Partly Cloudy,50,2013-08-14 04:53:00
7:53 PM,77.0,70.0,79,30.03,10.0,NE,18.4,-,N/A,,Scattered Clouds,50,2013-08-14 05:53:00
8:53 PM,75.9,69.1,79,30.04,10.0,ENE,19.6,-,N/A,,Clear,60,2013-08-14 06:53:00
9:53 PM,75.0,70.0,84,30.05,10.0,ENE,17.3,-,N/A,,Scattered Clouds,60,2013-08-14 07:53:00
10:53 PM,75.9,70.0,82,30.06,10.0,ENE,17.3,-,N/A,,Scattered Clouds,60,2013-08-14 08:53:00
11:53 PM,75.9,70.0,82,30.05,10.0,NE,15.0,-,N/A,,Scattered Clouds,50,2013-08-14 09:53:00